Terminal Aerodrome Forecast
Issued by NWS New Orleans/Baton Rouge, LA

Home | Current Version | Previous Version | Text Only | Print | Product List | Glossary On
Versions: 1 2 3 4 5 6 7 8 9 10 11 12
960
FTUS44 KLIX 192340
TAFBTR
TAF
KBTR 192340Z 2000/2024 11005KT P6SM SCT045
     FM202100 11009KT P6SM SCT035 BKN070=

USA.gov is the U.S. government's official web portal to all federal, state and local government web resources and services.